Location: Oroua River
(40.4333°S, 175.4333°E)
Time: 14:42:50
(UTC+00:00)

BlueWalker 3 - Pass Details

Date: 03 February 2023
Orbit: 497 x 515 km, 53.2° (Epoch: 22 March)

Event Time Altitude Azimuth Distance (km) Brightness Sun altitude
Exits shadow 16:04:20 24° 281° (W) 1,105 3.1 -14.8°
Maximum altitude 16:06:26 51° 215° (SW) 661 2.5 -14.4°
Drops below altitude 10° 16:10:20 10° 138° (SE) 1,759 6.1 -13.9°
Sets 16:12:36 0° 132° (SE) 2,646 7.6 -13.5°
